Terug naar catalogus

STARLINK-30816

ActiefCommunicatieVLEO
NORAD 58162·PAYLOAD·🇺🇸 United States

Gelanceerd Oct 29, 2023 vanaf Vandenberg Space Force Base

Loading…

Volgende Passages (komende 24 uur)

TLE

VersSource: CelesTrak SupGP

Epoch: Sep 15, 2026, 02:31 UTC

1 58162C 23166N   26258.10534722 -.00028059  00000+0 -82914-3 0  2587
2 58162  53.1602  58.9586 0001339  83.0417 201.5848 15.34400142    14

Volg STARLINK-30816 in realtime met AllMySat

Download on the App Store